Location: Elbart
(49.6135°N, 11.9134°E)
Time: 08:48:49
(UTC+00:00)

BREEZE M DEB (TANK) - Pass Details

Date: 09 April 2020
Orbit: 313 x 13666 km, 49.6° (Epoch: 01 June)

Event Time Altitude Azimuth Distance (km) Brightness Sun altitude
Rises 20:41:44 0° 259° (W) 5,011 8.1 -23.6°
Reaches altitude 10° 20:46:23 10° 259° (W) 2,818 6.8 -24.1°
Enters shadow 20:50:45 47° 255° (WSW) 734 3.5 -24.5°
